New Philadelphia, OH

12:24 AM EST on February 22, 2017 (GMT -0500)
Clever

Weather History for KPHD - February, 2012

Change the Weather History Date:

Friday, February 3, 2012

  Actual Average Record
Temperature  
Mean Temperature 36 °F 30 °F  
Max Temperature 50 °F 39 °F 62 °F (2016)
Min Temperature 22 °F 21 °F -3 °F (1961)
Degree Days  
Heating Degree Days 29 35  
Month to date heating degree days 77 105  
Since 1 July heating degree days 1367 3377  
Cooling Degree Days 0 0  
Month to date cooling degree days 0 0  
Year to date cooling degree days 0 0  
Moisture  
Dew Point 24 °F    
Average Humidity 69    
Maximum Humidity 92    
Minimum Humidity 46    
Precipitation  
Precipitation 0.00 in 0.07 in 0.57 in (2016)
Month to date precipitation 0.01 0.22  
Year to date precipitation 2.64 2.82  
Sea Level Pressure  
Sea Level Pressure 30.46 in    
Wind  
Wind Speed 1 mph (SE)    
Max Wind Speed 8 mph    
Max Gust Speed 10 mph    
Visibility 8 miles    
Events      
T = Trace of Precipitation, MM = Missing Value Source: NWS Daily Summary

Daily Weather History Graph

Daily Weather History Graph

Search for Another Location

Airport or City:

Trip Planner

Search our weather history database for the weather conditions in past years. The results will help you decide how hot, cold, wet, or windy it might be!

Date:

Astronomy

Feb. 03, 2012 Rise Set
Actual Time 7:33 AM EST 5:45 PM EST
Civil Twilight 7:04 AM EST 6:14 PM EST
Nautical Twilight 6:32 AM EST 6:47 PM EST
Astronomical Twilight 6:00 AM EST 7:19 PM EST
Moon 1:45 PM EST (2/3) 4:08 AM EST (2/3)
Length of Visible Light 11h 09m
Length of Day
10h 12m
Waxing Gibbous, 81% of the Moon is Illuminated
Feb 3
Waxing Gibbous
Feb 7
Full
Feb 14
Last Quarter
Feb 21
New
Feb 29
First Quarter

Hourly Weather History & Observations

Time (EST) Temp. Windchill Dew Point Humidity Pressure Visibility Wind Dir Wind Speed Gust Speed Precip Events Conditions
12:53 AM 26.1 °F - 21.9 °F 84% 30.46 in 9.0 mi Calm Calm - N/A   Clear
1:53 AM 26.1 °F - 21.9 °F 84% 30.47 in 8.0 mi Calm Calm - N/A   Clear
2:53 AM 25.0 °F - 21.0 °F 85% 30.48 in 7.0 mi Calm Calm - N/A   Clear
3:53 AM 25.0 °F - 19.9 °F 81% 30.49 in 7.0 mi Calm Calm - N/A   Clear
4:53 AM 24.1 °F - 19.0 °F 81% 30.51 in 7.0 mi Calm Calm - N/A   Clear
5:41 AM 23.0 °F - 19.4 °F 86% 30.48 in 7.0 mi Calm Calm - N/A   Partly Cloudy
5:53 AM 24.1 °F - 19.0 °F 81% 30.51 in 7.0 mi Calm Calm - N/A   Partly Cloudy
6:53 AM 23.0 °F - 18.0 °F 81% 30.53 in 7.0 mi Calm Calm - N/A   Clear
7:01 AM 23.0 °F - 19.4 °F 86% 30.50 in 6.0 mi Calm Calm - N/A   Scattered Clouds
7:53 AM 21.9 °F - 18.0 °F 85% 30.55 in 6.0 mi Calm Calm - N/A   Clear
8:53 AM 27.0 °F - 23.0 °F 85% 30.56 in 5.0 mi Calm Calm - N/A   Clear
9:53 AM 32.0 °F 27.5 °F 26.1 °F 79% 30.54 in 7.0 mi SSE 4.6 mph - N/A   Clear
10:53 AM 36.0 °F 32.1 °F 28.0 °F 73% 30.53 in 10.0 mi Variable 4.6 mph - N/A   Clear
11:53 AM 39.9 °F 35.8 °F 28.9 °F 65% 30.52 in - South 5.8 mph - N/A   Clear
12:53 PM 43.0 °F 39.5 °F 28.9 °F 58% 30.48 in 10.0 mi SSE 5.8 mph - N/A   Clear
1:53 PM 46.0 °F 43.9 °F 28.0 °F 50% 30.43 in 10.0 mi East 4.6 mph - N/A   Clear
2:53 PM 46.9 °F - 28.0 °F 48% 30.41 in - Calm Calm - N/A   Clear
3:27 PM 48.2 °F - 28.4 °F 46% 30.38 in 0.5 mi ENE 3.5 mph - N/A   Haze
3:30 PM 48.2 °F - 28.4 °F 46% 30.38 in 2.5 mi South 3.5 mph - N/A   Haze
3:37 PM 48.2 °F - 28.4 °F 46% 30.38 in 10.0 mi Calm Calm - N/A   Clear
3:53 PM 48.9 °F - 28.9 °F 46% 30.40 in - Calm Calm - N/A   Clear
4:53 PM 48.0 °F - 28.0 °F 46% 30.40 in 10.0 mi North 3.5 mph - N/A   Clear
5:53 PM 43.0 °F - 28.0 °F 56% 30.41 in 10.0 mi Calm Calm - N/A   Clear
6:53 PM 37.9 °F - 28.0 °F 68% 30.41 in 10.0 mi Calm Calm - N/A   Clear
7:53 PM 34.0 °F - 26.1 °F 73% 30.41 in 10.0 mi Calm Calm - N/A   Clear
8:53 PM 32.0 °F - 26.1 °F 79% 30.40 in 10.0 mi Calm Calm - N/A   Clear
9:53 PM 30.0 °F - 25.0 °F 82% 30.40 in 10.0 mi Calm Calm - N/A   Clear
10:53 PM 28.0 °F - 24.1 °F 85% 30.37 in 10.0 mi Calm Calm - N/A   Clear
11:53 PM 28.9 °F - 25.0 °F 85% 30.36 in 8.0 mi Calm Calm - N/A   Clear